User: anonymous   Login
Location: Saint Peter Port
(49.4500°N, 2.5330°W)
Time: 09:59:30
(UTC+00:00)
Language:

Cosmos 2242 Rocket - Orbit

View from above orbital plane
View from above orbital plane
View from above satellite
View from above satellite

Ground track
Ground track

The orbit data is extracted from the following two-line orbital elements,

1 22627U 93024B   16345.41893109  .00000095  00000-0  10017-4 0  9998
2 22627  82.5231 275.4098 0022372 225.4939 273.9676 14.78058415274261
Epoch (UTC): 10 December 2016 10:03:15
Eccentricity: 0.0022372
inclination: 82.5231°
perigee height: 620 km
apogee height: 651 km
right ascension of ascending node: 275.4098°
argument of perigee: 225.4939°
revolutions per day: 14.78058415
mean anomaly at epoch: 273.9676°
orbit number at epoch: 27426

The dashed part of the orbit path shows where the satellite is in the earth's shadow,  

DLR